{"data":{"norad_id":68210,"epoch":"2026-05-25T05:16:14.877696Z","epoch_age_seconds":49860,"freshness":"FRESH","line1":"1 68210U 26053D   26145.21961664  .00014003  00000+0  43513-3 0  9992","line2":"2 68210  97.2858  20.6246 0001421  92.6530 267.4875 15.33454412 11947","mean_motion":15.33454412,"eccentricity":0.0001421,"inclination_deg":97.2858,"raan_deg":20.6246,"arg_perigee_deg":92.653,"mean_anomaly_deg":267.4875,"bstar":0.00043513,"rev_number":1194,"period_min":93.905628281566,"perigee_km":464.54268815775,"apogee_km":466.48765410479,"semimajor_km":6843.6521711313,"source":"CELESTRAK","updated_at":"2026-05-25T13:38:21.877641Z"}}